Weather History for KFFA - February, 2014

Change the Weather History Date:

Wednesday, February 26, 2014

  Actual Average (KMQI) Record (KMQI)
Temperature  
Mean Temperature 39 °F -  
Max Temperature 42 °F 53 °F 81 °F (1977)
Min Temperature 36 °F 39 °F 20 °F (1967)
Degree Days  
Heating Degree Days 26    
Moisture  
Dew Point 31 °F    
Average Humidity 74    
Maximum Humidity 89    
Minimum Humidity 63    
Precipitation  
Precipitation 0.03 in - - ()
Sea Level Pressure  
Sea Level Pressure 29.88 in    
Wind  
Wind Speed 7 mph (NNE)    
Max Wind Speed 12 mph    
Max Gust Speed 18 mph    
Visibility 10 miles    
Events Rain    
Averages and records for this station are not official NWS values.
T = Trace of Precipitation, MM = Missing Value Source: NWS Daily Summary

Daily Weather History Graph

Daily Weather History Graph

Search for Another Location

Airport or City:

Trip Planner

Search our weather history database for the weather conditions in past years. The results will help you decide how hot, cold, wet, or windy it might be!

Date:

Astronomy

Feb. 26, 2014 Rise Set
Actual Time 6:36 AM EST 5:54 PM EST
Civil Twilight 6:10 AM EST 6:20 PM EST
Nautical Twilight 5:41 AM EST 6:50 PM EST
Astronomical Twilight 5:11 AM EST 7:20 PM EST
Moon 4:16 AM EST (2/26) 3:10 PM EST (2/26)
Length of Visible Light 12h 09m
Length of Day
11h 18m
Waning Crescent, 10% of the Moon is Illuminated
Feb 26
Waning Crescent
Mar 1
New
Mar 8
First Quarter
Mar 16
Full
Mar 23
Last Quarter

Hourly Weather History & Observations

Time (EST) Temp. Windchill Dew Point Humidity Pressure Visibility Wind Dir Wind Speed Gust Speed Precip Events Conditions
12:15 AM 38.7 °F 32.9 °F 28.0 °F 66% 29.99 in 10.0 mi NE 8.1 mph - N/A   Clear
12:35 AM 38.8 °F 33.2 °F 28.0 °F 65% 29.99 in 10.0 mi ENE 8.1 mph - N/A   Clear
12:50 AM 39.0 °F 33.4 °F 29.1 °F 68% 29.99 in 10.0 mi NE 8.1 mph - N/A   Scattered Clouds
1:15 AM 39.2 °F 34.2 °F 30.6 °F 71% 29.98 in 10.0 mi NE 6.9 mph - N/A   Scattered Clouds
1:35 AM 38.8 °F 33.8 °F 29.8 °F 70% 29.97 in 10.0 mi NE 6.9 mph - N/A   Scattered Clouds
1:55 AM 38.8 °F 33.8 °F 30.2 °F 71% 29.96 in 10.0 mi NE 6.9 mph - N/A   Scattered Clouds
2:15 AM 39.2 °F 35.9 °F 30.9 °F 72% 29.96 in 10.0 mi NE 4.6 mph - N/A   Scattered Clouds
2:35 AM 39.2 °F 35.0 °F 30.9 °F 72% 29.95 in 10.0 mi ENE 5.8 mph - N/A   Scattered Clouds
2:55 AM 39.2 °F 34.2 °F 31.5 °F 74% 29.93 in 10.0 mi NE 6.9 mph - N/A   Scattered Clouds
3:15 AM 39.2 °F 35.0 °F 32.0 °F 75% 29.93 in 10.0 mi ENE 5.8 mph - N/A   Clear
3:35 AM 39.4 °F 35.2 °F 31.6 °F 74% 29.93 in 10.0 mi ENE 5.8 mph - N/A   Scattered Clouds
3:55 AM 39.7 °F 35.6 °F 31.5 °F 72% 29.94 in 10.0 mi ENE 5.8 mph - N/A   Mostly Cloudy
4:15 AM 40.1 °F 36.1 °F 31.8 °F 72% 29.92 in 10.0 mi NE 5.8 mph - N/A   Overcast
4:35 AM 40.3 °F 36.3 °F 32.2 °F 73% 29.91 in 10.0 mi NE 5.8 mph - N/A   Overcast
4:55 AM 40.6 °F 37.5 °F 33.1 °F 74% 29.91 in 10.0 mi ENE 4.6 mph - N/A   Overcast
5:15 AM 41.2 °F 36.6 °F 33.1 °F 73% 29.90 in 10.0 mi East 6.9 mph - N/A   Overcast
5:30 AM 41.4 °F 38.4 °F 32.7 °F 71% 29.91 in 10.0 mi ENE 4.6 mph - N/A   Overcast
5:55 AM 41.9 °F - 32.9 °F 70% 29.91 in 10.0 mi Calm Calm - N/A   Overcast
6:15 AM 41.9 °F 40.0 °F 33.4 °F 72% 29.91 in 10.0 mi ENE 3.5 mph - N/A   Overcast
6:35 AM 42.1 °F 40.2 °F 33.8 °F 72% 29.89 in 10.0 mi NE 3.5 mph - N/A   Overcast
6:55 AM 42.1 °F - 34.3 °F 74% 29.89 in 10.0 mi Calm Calm - N/A   Overcast
7:15 AM 42.1 °F 40.2 °F 34.5 °F 75% 29.87 in 10.0 mi ENE 3.5 mph - N/A   Overcast
7:35 AM 42.1 °F 40.2 °F 34.7 °F 75% 29.89 in 10.0 mi North 3.5 mph - N/A   Overcast
7:55 AM 42.1 °F 38.4 °F 34.2 °F 74% 29.89 in 10.0 mi North 5.8 mph - N/A   Overcast
8:15 AM 42.1 °F 38.4 °F 34.3 °F 74% 29.89 in 10.0 mi North 5.8 mph - N/A Rain Rain
8:35 AM 41.0 °F 38.0 °F 35.2 °F 80% 29.91 in 10.0 mi North 4.6 mph - N/A Rain Rain
8:55 AM 40.5 °F 36.5 °F 36.9 °F 87% 29.91 in 5.0 mi North 5.8 mph - 0.01 in Rain Rain
9:15 AM 39.7 °F 34.3 °F 36.7 °F 89% 29.90 in 7.0 mi North 8.1 mph - N/A Rain Light Rain
9:35 AM 39.2 °F 34.2 °F 36.3 °F 89% 29.91 in 10.0 mi NNE 6.9 mph - 0.01 in Rain Light Rain
9:55 AM 38.8 °F 33.8 °F 35.4 °F 88% 29.92 in 7.0 mi NNE 6.9 mph - 0.01 in Rain Light Rain
10:15 AM 38.5 °F 32.7 °F 35.1 °F 87% 29.91 in 5.0 mi North 8.1 mph - 0.01 in Rain Rain
10:35 AM 38.3 °F 32.5 °F 35.1 °F 88% 29.91 in 7.0 mi North 8.1 mph 18.4 mph 0.01 in Rain Light Rain
10:55 AM 37.9 °F 32.1 °F 35.1 °F 89% 29.90 in 10.0 mi North 8.1 mph - 0.01 in   Overcast
11:15 AM 37.8 °F 31.3 °F 34.7 °F 89% 29.90 in 10.0 mi North 9.2 mph - N/A   Overcast
11:35 AM 38.1 °F 31.7 °F 34.7 °F 87% 29.88 in 10.0 mi NNE 9.2 mph - N/A Rain Rain
11:55 AM 38.3 °F 31.4 °F 34.7 °F 87% 29.88 in 10.0 mi NNE 10.4 mph - N/A   Overcast
12:15 PM 39.0 °F 33.4 °F 35.2 °F 86% 29.86 in 10.0 mi NNE 8.1 mph 17.3 mph N/A   Overcast
12:35 PM 39.2 °F 33.6 °F 34.9 °F 84% 29.85 in 10.0 mi North 8.1 mph 17.3 mph N/A   Overcast
12:55 PM 39.2 °F 33.0 °F 34.2 °F 82% 29.84 in 10.0 mi NNE 9.2 mph 17.3 mph N/A   Overcast
1:15 PM 39.2 °F 34.2 °F 33.6 °F 80% 29.83 in 10.0 mi NNE 6.9 mph 16.1 mph N/A   Overcast
1:35 PM 39.2 °F 33.6 °F 32.4 °F 76% 29.83 in 10.0 mi NNE 8.1 mph 16.1 mph N/A   Overcast
1:55 PM 38.5 °F 32.7 °F 31.8 °F 77% 29.83 in 10.0 mi NNE 8.1 mph - N/A   Overcast
2:15 PM 38.1 °F 33.7 °F 31.5 °F 77% 29.82 in 10.0 mi NNE 5.8 mph - N/A   Overcast
2:35 PM 38.3 °F 33.2 °F 31.3 °F 76% 29.81 in 10.0 mi North 6.9 mph - N/A   Overcast
2:55 PM 38.5 °F 34.1 °F 30.7 °F 74% 29.82 in 10.0 mi North 5.8 mph - N/A   Overcast
3:15 PM 38.5 °F 33.4 °F 30.2 °F 72% 29.81 in 10.0 mi North 6.9 mph - N/A   Overcast
3:35 PM 38.1 °F 34.6 °F 30.6 °F 74% 29.81 in 10.0 mi North 4.6 mph - N/A   Overcast
3:55 PM 37.8 °F 34.2 °F 30.6 °F 75% 29.81 in 10.0 mi NNE 4.6 mph - N/A   Overcast
4:15 PM 37.8 °F 34.2 °F 30.2 °F 74% 29.81 in 10.0 mi NNE 4.6 mph - N/A   Overcast
4:35 PM 37.6 °F 31.0 °F 30.2 °F 75% 29.81 in 10.0 mi NNE 9.2 mph - N/A   Overcast
4:55 PM 37.8 °F 33.3 °F 30.4 °F 75% 29.81 in 10.0 mi North 5.8 mph - N/A   Overcast
5:15 PM 37.9 °F 33.5 °F 30.0 °F 73% 29.81 in 10.0 mi NNE 5.8 mph - N/A   Mostly Cloudy
5:35 PM 37.9 °F 34.4 °F 29.1 °F 71% 29.81 in 10.0 mi NNE 4.6 mph - N/A   Overcast
5:55 PM 37.9 °F 32.7 °F 28.8 °F 70% 29.81 in 10.0 mi North 6.9 mph - N/A   Overcast
6:15 PM 37.9 °F 33.5 °F 28.4 °F 69% 29.82 in 10.0 mi NNE 5.8 mph - N/A   Overcast
6:35 PM 37.9 °F 32.7 °F 28.0 °F 68% 29.82 in 10.0 mi NE 6.9 mph - N/A   Overcast
6:55 PM 37.9 °F 30.9 °F 27.3 °F 66% 29.83 in 10.0 mi NNE 10.4 mph - N/A   Overcast
7:15 PM 37.9 °F 33.5 °F 26.6 °F 64% 29.83 in 10.0 mi NNE 5.8 mph - N/A   Overcast
7:35 PM 38.1 °F 31.7 °F 26.6 °F 63% 29.83 in 10.0 mi NNE 9.2 mph - N/A   Overcast
7:55 PM 38.1 °F 31.2 °F 27.1 °F 65% 29.83 in 10.0 mi NNE 10.4 mph 16.1 mph N/A   Overcast
8:15 PM 38.1 °F 32.3 °F 27.5 °F 66% 29.85 in 10.0 mi NNE 8.1 mph - N/A   Overcast
8:35 PM 37.8 °F 30.2 °F 27.1 °F 66% 29.84 in 10.0 mi NE 11.5 mph - N/A   Overcast
8:55 PM 37.4 °F 30.8 °F 27.9 °F 68% 29.84 in 10.0 mi NE 9.2 mph 16.1 mph N/A   Scattered Clouds
9:15 PM 37.4 °F 32.1 °F 27.9 °F 68% 29.85 in 10.0 mi NE 6.9 mph - N/A   Scattered Clouds
9:35 PM 37.6 °F 31.6 °F 28.4 °F 69% 29.86 in 10.0 mi NE 8.1 mph - N/A   Mostly Cloudy
9:55 PM 37.8 °F 31.8 °F 28.0 °F 68% 29.86 in 10.0 mi NE 8.1 mph - N/A   Overcast
10:15 PM 37.8 °F 33.3 °F 28.2 °F 68% 29.86 in 10.0 mi NE 5.8 mph - N/A   Overcast
10:35 PM 37.4 °F 31.4 °F 28.4 °F 70% 29.85 in 10.0 mi NE 8.1 mph - N/A   Scattered Clouds
10:55 PM 37.4 °F 32.8 °F 28.6 °F 70% 29.85 in 10.0 mi NE 5.8 mph - N/A   Clear
11:15 PM 37.0 °F 31.6 °F 28.8 °F 72% 29.84 in 10.0 mi NE 6.9 mph - N/A   Clear
11:35 PM 36.9 °F 32.2 °F 28.0 °F 70% 29.83 in 10.0 mi NE 5.8 mph - N/A   Clear
11:55 PM 37.0 °F 32.4 °F 28.2 °F 70% 29.83 in 10.0 mi NE 5.8 mph - N/A   Clear